CAPE
7 11 24 13 17 10 8 7 8 2 3 3 3 4 0 0 0 0 0 0 0 0 0 0 0 0 0 0 0 0 0 0 0 0 0 0 0 0 0 0 0 0 0 0 0 0 0 0 0 0 0 0 0 0
12 4 21 11 6 8 6 6 10 10 2 2 4 3 2 0 0 0 0 0 0 0 0 0 0 0 0 0 0 0 0 0 0 0 0 0 0 0 0 0 0 0 0 0 0 0 0 0 0 0 0 0 0 0
4 4 3 7 17 24 19 13 12 7 7 1 3 3 4 0 0 0 0 0 0 0 0 0 0 0 0 0 0 0 0 0 0 0 0 0 0 0 0 0 0 0 0 0 0 0 0 0 0 0 0 0 0 0
5 2 7 14 23 22 16 19 24 9 2 14 1 4 4 2 0 0 0 0 0 0 0 0 0 0 0 0 0 0 0 0 0 0 0 0 0 0 0 0 0 0 0 0 0 0 0 0 0 0 0 0 0 0
3 3 10 19 7 8 19 14 16 24 11 20 12 3 4 3 0 0 0 0 0 0 0 0 0 0 0 0 0 0 0 0 0 0 0 0 0 0 0 0 0 0 0 0 0 0 0 0 0 0 0 0 0 0
10 29 17 4 5 2 5 19 5 28 20 14 17 1 3 4 0 0 0 0 0 0 0 0 0 0 0 0 0 0 0 0 0 0 0 0 0 0 0 0 0 0 0 0 0 0 0 0 0 0 0 0 0 0
20 17 11 10 7 8 3 6 19 11 16 32 23 3 2 3 0 0 0 0 0 0 0 0 0 0 0 0 0 0 0 0 0 0 0 0 0 0 0 0 0 0 0 0 0 0 0 0 0 0 0 0 0 0
0 0 10 10 7 8 6 3 30 16 25 22 27 0 1 2 0 0 0 0 0 0 0 0 0 0 0 0 0 0 0 0 0 0 0 0 0 0 0 0 0 0 0 0 0 0 0 0 0 0 0 0 0 0
2 5 5 7 5 5 7 1 35 10 8 34 11 1 1 0 0 0 0 0 0 0 0 0 0 0 0 0 0 0 0 0 0 0 0 0 0 0 0 0 0 0 0 0 0 0 0 0 0 0 0 0 0 0
2 0 1 1 2 5 8 6 17 2 5 15 20 7 4 0 0 0 0 0 0 0 0 0 0 0 0 0 0 0 0 0 0 0 0 0 0 0 0 0 0 0 0 0 0 0 0 0 0 0 0 0 0 0
1 0 0 0 0 7 8 9 14 3 9 2 4 0 0 1 0 0 0 0 0 0 0 0 0 0 0 0 0 0 0 0 0 0 0 0 0 0 0 0 0 0 0 0 0 0 0 0 0 0 0 0 0 0
1 1 0 5 8 10 13 11 8 1 22 15 0 0 3 3 2 0 0 0 0 0 0 0 0 0 0 0 0 0 0 0 0 0 0 0 0 0 0 0 0 0 0 0 0 0 0 0 0 0 0 0 0 0
4 2 2 10 20 10 6 7 24 11 5 19 10 0 0 0 0 0 0 0 0 0 0 0 0 0 0 0 0 0 0 0 0 0 0 0 0 0 0 0 0 0 0 0 0 0 0 0 0 0 0 0 0 0
10 5 2 13 13 10 28 18 6 6 5 0 1 0 0 0 0 0 0 0 0 0 0 0 0 0 0 0 0 0 0 0 0 0 0 0 0 0 0 0 0 0 0 0 0 0 0 0 0 0 0 0 0 0
9 12 20 27 29 24 6 12 5 4 15 0 0 0 0 0 0 0 0 0 0 0 0 0 0 0 0 0 0 0 0 0 0 0 0 0 0 0 0 0 0 0 0 0 0 0 0 0 0 0 0 0 0 0
7 16 9 23 21 19 18 14 4 8 12 1 0 0 0 0 0 0 0 0 0 0 0 0 0 0 0 0 0 0 0 0 0 0 0 0 0 0 0 0 0 0 0 0 0 0 0 0 0 0 0 0 0 0
19 1 3 9 17 17 8 5 6 20 0 0 0 0 0 0 0 0 0 0 0 0 0 0 0 0 0 0 0 0 0 0 0 0 0 0 0 0 0 0 0 0 0 0 0 0 0 0 0 0 0 0 0 0
0 0 8 11 21 8 0 2 0 3 2 0 0 0 0 0 0 0 0 0 0 0 0 0 0 0 0 0 0 0 0 0 0 0 0 0 0 0 0 0 0 0 0 0 0 0 0 0 0 0 0 0 0 0
0 1 9 14 40 11 5 0 0 2 0 0 0 0 0 0 0 0 0 0 0 0 0 0 0 0 0 0 0 0 0 0 0 0 0 0 0 0 0 0 0 0 0 0 0 0 0 0 0 0 0 0 0 0
5 9 11 8 14 1 0 0 0 0 0 0 0 0 0 0 0 0 0 0 0 0 0 0 0 0 0 0 0 0 0 0 0 0 0 0 0 0 0 0 0 0 0 0 0 0 0 0 0 0 0 0 0 0
3 0 0 13 19 4 0 0 0 0 0 0 0 0 0 0 0 0 0 0 0 0 0 0 0 0 0 0 0 0 0 0 0 0 0 0 0 0 0 0 0 0 0 0 0 0 0 0 0 0 0 0 0 0
0 1 0 11 37 5 0 0 0 0 0 0 0 0 0 0 0 0 0 0 0 0 0 0 0 0 0 0 0 0 0 0 0 0 0 0 0 0 0 0 0 0 0 0 0 0 0 0 0 0 0 0 0 0
2 0 3 11 10 14 0 0 0 0 0 0 0 0 0 0 0 0 0 0 0 0 0 0 0 0 0 0 0 0 0 0 0 0 0 0 0 0 0 0 0 0 0 0 0 0 0 0 0 0 0 0 0 0
6 7 4 0 5 5 0 0 0 0 0 1 0 0 0 0 0 0 1 0 0 0 0 0 0 0 0 0 0 0 0 0 0 0 0 0 0 0 0 0 0 0 0 0 0 0 0 0 0 0 0 0 0 0
0 0 0 0 3 14 2 0 0 0 0 0 0 0 0 0 0 0 0 0 0 0 0 0 0 0 0 0 0 0 0 0 0 0 0 0 0 0 0 0 0 0 0 0 0 0 0 0 0 0 0 0 0 0
0 0 4 2 0 4 0 4 0 0 0 0 0 0 0 0 0 0 0 0 0 0 0 0 0 0 0 0 0 0 0 0 0 0 0 0 0 0 0 0 0 0 0 0 0 0 0 0 0 0 0 0 0 0
0 0 0 0 0 0 0 0 0 0 0 0 0 0 0 0 0 0 0 0 0 0 0 0 0 0 0 0 0 0 0 0 0 0 0 0 0 0 0 0 0 0 0 0 0 0 0 0 0 0 0 0 0 0
1 0 0 0 0 0 0 0 0 0 0 0 0 0 6 5 0 1 0 0 0 0 0 0 0 0 0 0 0 0 0 0 0 0 0 0 0 0 0 0 0 0 0 0 0 0 0 0 0 0 0 0 0 0
0 0 0 0 0 0 0 0 0 0 0 0 0 0 2 1 4 0 0 0 0 0 1 0 0 0 0 0 0 0 0 0 0 0 0 0 0 0 0 0 0 0 0 0 0 0 0 0 0 0 0 0 0 0
0 0 0 0 0 0 0 0 0 0 0 0 0 0 0 0 0 0 0 0 0 1 1 1 0 0 0 0 0 0 0 0 0 0 0 0 0 0 0 0 0 0 0 0 0 0 0 0 0 0 0 0 0 0
0 0 0 0 0 0 0 0 0 0 0 0 0 0 0 0 0 0 0 0 0 5 5 4 0 0 0 0 0 0 0 0 0 0 0 0 0 0 0 0 0 0 0 0 0 0 0 0 0 0 0 0 0 0
0 0 0 0 0 0 0 0 0 0 0 0 0 0 0 0 0 0 0 0 0 0 0 0 0 0 0 0 0 0 0 0 0 0 0 0 0 0 0 0 0 0 0 0 0 0 0 0 0 0 0 0 0 0
0 0 0 0 0 0 0 0 0 0 0 0 0 0 0 0 0 0 0 0 0 0 0 0 0 0 0 0 0 0 0 0 0 0 0 0 0 0 0 0 0 0 0 0 0 0 0 0 0 0 0 0 0 0
CIN
-1 -1 0 -1 0 0 0 0 0 0 0 0 0 0 0 0 0 0 0 0 0 0 0 0 0 0 0 0 0 0 0 0 0 0 0 0 0 0 0 0 0 0 0 0 0 0 0 0 0 0 0 0 0 0
0 -1 0 0 0 0 0 0 0 0 0 0 0 0 0 0 0 0 0 0 0 0 0 0 0 0 0 0 0 0 0 0 0 0 0 0 0 0 0 0 0 0 0 0 0 0 0 0 0 0 0 0 0 0
0 0 0 0 0 0 0 0 0 0 0 0 0 0 0 0 0 0 0 0 0 0 0 0 0 0 0 0 0 0 0 0 0 0 0 0 0 0 0 0 0 0 0 0 0 0 0 0 0 0 0 0 0 0
0 0 0 0 -1 0 0 0 0 -1 0 0 0 0 0 0 0 0 0 0 0 0 0 0 0 0 0 0 0 0 0 0 0 0 0 0 0 0 0 0 0 0 0 0 0 0 0 0 0 0 0 0 0 0
0 0 0 0 0 0 0 0 0 0 0 0 0 0 0 0 0 0 0 0 0 0 0 0 0 0 0 0 0 0 0 0 0 0 0 0 0 0 0 0 0 0 0 0 0 0 0 0 0 0 0 0 0 0
0 0 0 0 0 0 0 0 0 0 -1 0 0 0 0 0 0 0 0 0 0 0 0 0 0 0 0 0 0 0 0 0 0 0 0 0 0 0 0 0 0 0 0 0 0 0 0 0 0 0 0 0 0 0
-2 -1 -2 -1 -1 0 0 0 0 0 -1 0 0 0 0 0 0 0 0 0 0 0 0 0 0 0 0 0 0 0 0 0 0 0 0 0 0 0 0 0 0 0 0 0 0 0 0 0 0 0 0 0 0 0
0 0 0 0 0 -1 -1 -1 0 0 0 0 -1 0 0 0 0 0 0 0 0 0 0 0 0 0 0 0 0 0 0 0 0 0 0 0 0 0 0 0 0 0 0 0 0 0 0 0 0 0 0 0 0 0
0 0 -1 -1 -1 0 0 -1 0 0 0 0 -2 -2 0 0 0 0 0 0 0 0 0 0 0 0 0 0 0 0 0 0 0 0 0 0 0 0 0 0 0 0 0 0 0 0 0 0 0 0 0 0 0 0
0 0 -1 0 0 0 0 0 -1 -1 -1 -1 -1 0 0 0 0 0 0 0 0 0 0 0 0 0 0 0 0 0 0 0 0 0 0 0 0 0 0 0 0 0 0 0 0 0 0 0 0 0 0 0 0 0
0 0 0 -1 0 0 0 0 -5 -7 -6 -4 -2 0 -2 0 0 0 0 0 0 0 0 0 0 0 0 0 0 0 0 0 0 0 0 0 0 0 0 0 0 0 0 0 0 0 0 0 0 0 0 0 0 0
-1 0 0 0 -1 -1 -1 0 0 -2 -6 -6 0 -3 -1 -1 0 0 0 0 0 0 0 0 0 0 0 0 0 0 0 0 0 0 0 0 0 0 0 0 0 0 0 0 0 0 0 0 0 0 0 0 0 0
-1 0 -1 -1 -1 -1 -1 -1 0 -2 0 -7 -15 0 0 0 0 0 0 0 0 0 0 0 0 0 0 0 0 0 0 0 0 0 0 0 0 0 0 0 0 0 0 0 0 0 0 0 0 0 0 0 0 0
-1 -1 0 -1 -1 -1 -2 -5 -4 -1 0 0 -8 0 0 0 0 0 0 0 0 0 0 0 0 0 0 0 0 0 0 0 0 0 0 0 0 0 0 0 0 0 0 0 0 0 0 0 0 0 0 0 0 0
-1 -1 -1 -1 -1 -1 -2 -9 -2 -1 0 0 0 -21 0 0 0 0 0 0 0 0 0 0 0 0 0 0 0 0 0 0 0 0 0 0 0 0 0 0 0 0 0 0 0 0 0 0 0 0 0 0 0 0
-1 -1 -3 -1 -1 -3 0 0 0 -6 -4 -17 0 0 0 0 0 0 0 0 0 0 0 0 0 0 0 0 0 0 0 0 0 0 0 0 0 0 0 0 0 0 0 0 0 0 0 0 0 0 0 0 0 0
0 -2 -4 -1 0 0 0 0 0 -5 -25 -9 0 0 0 0 0 0 0 0 0 0 0 0 0 0 0 0 0 0 0 0 0 0 0 0 0 0 0 0 0 0 0 0 0 0 0 0 0 0 0 0 0 0
0 0 -3 -2 -1 -4 0 0 0 -4 -11 0 0 0 0 0 0 0 0 0 0 0 0 0 0 0 0 0 0 0 0 0 0 0 0 0 0 0 0 0 0 0 0 0 0 0 0 0 0 0 0 0 0 0
0 -2 -4 -1 -1 -2 -5 0 0 -6 0 0 0 0 0 0 0 0 0 0 0 0 0 0 0 0 0 0 0 0 0 0 0 0 0 0 0 0 0 0 0 0 0 0 0 0 0 0 0 0 0 0 0 0
0 0 0 -1 -1 0 0 0 0 0 0 0 0 0 0 0 0 0 0 0 0 0 0 0 0 0 0 0 0 0 0 0 0 0 0 0 0 0 0 0 0 0 0 0 0 0 0 0 0 0 0 0 0 0
-2 0 -1 -4 -5 -10 0 0 0 0 0 0 0 0 0 0 0 0 0 0 0 0 0 0 0 0 0 0 0 0 0 0 0 0 0 0 0 0 0 0 0 0 0 0 0 0 0 0 0 0 0 0 0 0
0 -8 0 -17 -1 -3 0 0 0 0 0 0 0 0 0 0 0 0 0 0 0 0 0 0 0 0 0 0 0 0 0 0 0 0 0 0 0 0 0 0 0 0 0 0 0 0 0 0 0 0 0 0 0 0
-2 0 -4 -8 -2 -5 -9 0 0 0 0 0 0 0 0 -1 0 0 0 0 0 0 0 0 0 0 0 0 0 0 0 0 0 0 0 0 0 0 0 0 0 0 0 0 0 0 0 0 0 0 0 0 0 0
-6 -6 -10 -2 -13 -6 -1 0 0 0 -22 -5 -1 -1 0 0 0 0 -3 0 0 0 0 0 0 0 0 0 0 0 0 0 0 0 0 0 0 0 0 0 0 0 0 0 0 0 0 0 0 0 0 0 0 0
-1 0 -1 0 -16 -7 -17 0 0 -2 0 0 0 0 0 0 0 0 0 0 0 0 0 0 0 0 0 0 0 0 0 0 0 0 0 0 0 0 0 0 0 0 0 0 0 0 0 0 0 0 0 0 0 0
0 0 -7 -15 0 -6 -1 -22 0 0 0 0 0 0 0 0 0 0 -1 0 0 0 0 0 0 0 0 0 0 0 0 0 0 0 0 0 0 0 0 0 0 0 0 0 0 0 0 0 0 0 0 0 0 0
0 0 0 0 0 -7 0 0 0 0 0 0 0 0 0 -9 -7 0 0 0 0 0 0 0 0 0 0 0 0 0 0 0 0 0 0 0 0 0 0 0 0 0 0 0 0 0 0 0 0 0 0 0 0 0
-9 0 0 0 0 0 0 0 0 -5 0 0 0 0 -4 -5 -2 -6 0 0 0 0 0 0 0 0 0 0 0 0 0 0 0 0 0 0 0 0 0 0 0 0 0 0 0 0 0 0 0 0 0 0 0 0
0 0 0 0 0 -7 0 0 0 0 0 -1 -1 0 -10 -4 -87 -2 0 0 0 0 -22 0 0 0 0 0 0 0 0 0 0 0 0 0 0 0 0 0 0 0 0 0 0 0 0 0 0 0 0 0 0 0
0 0 0 0 0 0 0 0 0 0 0 0 0 0 0 0 0 0 0 0 0 -12 -35 -32 0 0 0 0 0 0 0 0 0 0 0 0 0 0 0 0 0 0 0 0 0 0 0 0 0 0 0 0 0 0
0 0 0 0 0 0 0 0 0 0 0 0 0 0 0 0 0 0 0 0 0 -107 -71 -22 0 0 0 0 0 0 0 0 0 0 0 0 0 0 0 0 0 0 0 0 0 0 0 0 0 0 0 0 0 0
0 0 0 0 0 0 0 0 0 0 0 0 0 0 0 0 0 0 0 0 0 -9 -6 0 0 0 0 0 0 0 0 0 0 0 0 0 0 0 0 0 0 0 0 0 0 0 0 0 0 0 0 0 0 0
0 0 -1 0 0 0 0 0 0 0 0 0 0 0 0 0 0 0 0 0 0 0 0 0 0 0 0 0 0 0 0 0 0 0 0 0 0 0 0 0 0 0 0 0 0 0 0 0 0 0 0 0 0 0
Wind_Speed
29 30 31 33 33 33 32 31 29 30 28 26 26 26 29 28 25 23 24 22 24 26 23 23 22 22 21 20 20 14 14 20 18 11 9 9 8 6 9 9 11 11 14 15 18 19 21 14 18 19 19 20 18 19
30 30 30 31 34 35 34 33 31 31 30 29 28 27 29 29 26 24 26 21 18 22 22 22 20 19 20 20 18 16 21 18 14 13 12 10 9 8 8 10 10 10 10 14 11 15 13 9 16 14 16 17 17 18
28 29 30 30 32 33 33 33 31 31 31 30 30 28 28 31 28 26 26 22 22 23 23 24 25 22 19 19 19 21 25 19 20 18 12 12 12 8 7 6 9 8 8 12 14 12 8 7 12 13 14 16 17 18
26 29 30 30 31 31 32 32 31 30 32 31 31 30 29 31 28 27 28 24 23 23 30 28 23 23 22 21 21 20 19 17 16 19 19 16 13 9 10 12 9 10 8 10 10 9 11 6 7 11 14 16 17 17
24 28 29 29 29 31 32 31 32 31 31 32 31 30 30 29 27 27 27 26 24 27 28 29 24 23 23 22 21 19 17 19 22 23 22 20 16 13 15 14 10 4 7 8 10 9 12 12 8 11 13 14 15 16
23 23 27 28 29 30 32 33 33 32 31 36 33 32 31 27 25 26 33 32 26 22 26 29 25 26 22 20 20 20 20 21 22 24 24 22 20 15 12 12 12 3 4 7 10 9 12 13 12 12 12 14 14 15
20 23 25 27 28 30 31 33 35 34 34 34 36 34 32 26 33 34 32 27 24 21 28 29 29 25 24 23 24 23 22 22 24 25 26 23 21 18 18 15 13 3 3 7 8 11 13 11 10 12 13 14 15 16
21 24 26 26 27 29 31 33 35 36 34 36 37 34 36 35 28 38 27 17 21 24 25 31 32 28 24 27 29 25 26 25 25 25 24 25 22 21 20 15 13 5 4 3 4 9 7 10 12 12 13 13 14 14
21 24 27 29 29 29 30 32 33 34 37 37 34 34 29 26 31 36 24 18 20 27 33 32 35 35 23 25 24 25 25 27 27 31 29 23 25 17 15 13 8 4 2 2 3 6 8 9 11 11 12 12 12 13
23 26 28 30 30 31 31 32 33 34 37 33 31 33 33 29 24 22 27 32 31 32 30 36 28 32 24 25 25 23 25 27 29 29 23 29 31 28 22 16 6 5 3 7 4 3 6 8 9 11 11 12 12 13
24 27 28 30 31 31 32 32 31 32 31 33 36 38 30 20 22 29 33 35 34 39 37 34 33 29 26 27 27 25 25 25 31 29 26 29 31 24 19 19 12 9 9 10 4 6 10 11 13 13 12 12 12 13
23 26 28 30 32 31 30 31 30 29 31 34 32 29 28 31 30 34 37 35 38 45 37 38 34 27 24 22 23 24 26 25 30 21 28 34 29 23 16 14 16 14 13 11 6 7 9 10 13 13 13 13 13 13
21 26 28 28 30 31 30 29 31 30 30 31 36 36 35 35 38 39 43 45 46 38 39 35 33 28 24 24 24 24 28 32 21 28 32 29 26 22 15 10 11 12 13 11 8 8 10 11 12 14 14 12 13 13
21 27 29 30 30 32 29 29 31 28 31 38 42 46 42 38 42 37 43 42 40 36 34 34 32 30 26 28 24 29 28 26 33 37 34 26 20 16 10 7 10 14 16 15 12 11 12 13 13 13 13 13 13 13
22 27 29 30 31 30 30 32 33 35 34 39 41 48 46 40 35 40 35 39 36 32 32 31 30 28 30 29 29 27 30 37 36 36 30 24 21 15 11 9 10 14 16 16 14 13 13 14 14 14 13 13 13 12
21 26 29 30 28 27 30 34 37 30 35 42 40 44 39 44 44 39 37 35 33 35 32 31 31 34 35 33 34 40 38 39 35 32 29 25 18 13 10 11 11 13 16 15 15 14 15 16 15 14 13 13 12 12
21 24 25 27 29 30 34 32 23 25 30 40 53 45 42 44 45 41 39 37 31 36 43 39 41 37 28 41 48 41 44 37 29 28 24 22 17 13 11 11 12 15 16 16 15 14 15 14 12 13 13 12 11 11
21 23 23 26 26 29 24 18 17 21 36 32 41 54 51 41 43 41 39 34 34 38 40 45 37 43 44 47 50 44 36 33 30 27 20 18 15 11 10 12 14 16 17 17 16 15 16 15 15 13 12 12 10 10
20 20 22 23 20 22 20 20 20 26 30 32 33 39 47 47 42 43 41 42 37 38 36 39 46 55 53 42 40 36 36 32 29 26 23 17 13 10 10 12 13 15 17 17 17 16 16 16 12 11 11 11 10 10
22 23 21 21 18 19 20 20 18 25 26 31 32 44 47 48 42 40 41 44 45 41 44 52 56 40 43 48 38 34 29 27 26 26 25 21 17 13 12 14 15 16 15 15 14 14 14 11 9 10 11 10 9 10
22 22 22 20 17 14 21 21 21 19 25 28 31 41 47 46 50 48 49 38 48 53 53 52 51 50 44 33 36 37 31 24 27 26 26 24 20 17 15 14 15 17 18 18 17 16 16 15 13 12 12 10 8 8
19 19 19 17 22 22 25 23 22 22 23 27 31 37 48 58 57 54 45 52 52 53 54 51 47 46 42 46 39 34 35 30 29 27 24 20 20 20 19 18 19 20 20 20 18 18 16 14 13 12 12 10 9 8
18 18 20 21 25 26 28 21 27 26 30 27 27 33 42 51 55 44 51 51 56 54 53 54 51 47 46 40 40 40 37 34 31 29 25 26 25 22 21 21 21 21 20 18 17 16 16 15 15 13 11 10 9 7
16 20 22 24 25 27 23 27 25 28 29 30 31 31 34 44 45 54 61 59 59 53 54 53 48 54 52 46 43 41 41 37 33 30 26 24 24 24 23 22 22 20 20 18 17 17 16 17 16 15 14 13 11 9
23 24 24 28 25 27 30 31 30 31 36 33 36 34 29 29 44 53 64 62 63 61 58 53 50 51 58 60 49 42 37 38 38 34 29 27 24 23 23 22 22 21 20 20 20 18 18 17 17 17 16 15 13 11
27 26 25 24 25 28 29 32 31 31 32 34 33 31 29 34 41 45 39 53 54 55 54 55 57 51 54 56 59 47 40 37 37 37 33 30 27 26 26 27 26 24 23 22 21 21 20 19 18 19 17 16 15 12
31 28 25 25 27 26 29 30 30 32 36 37 33 32 32 37 41 41 42 35 38 44 48 51 50 53 52 52 50 48 40 36 38 39 33 32 29 28 27 28 29 26 25 23 22 23 23 21 20 20 17 15 14 13
30 27 29 34 33 31 36 35 34 36 38 35 33 35 31 34 41 41 36 32 34 34 39 46 48 52 51 48 45 45 40 34 32 29 28 29 31 31 29 29 26 24 25 23 22 22 22 22 21 20 18 16 14 13
31 26 28 32 32 31 33 37 40 39 37 37 41 44 42 42 45 48 44 41 37 38 38 38 42 44 47 45 43 40 42 41 40 40 39 38 34 33 28 26 25 24 25 24 22 21 22 21 20 19 17 16 13 12
27 20 28 30 33 40 36 31 36 34 34 40 44 49 51 51 50 47 45 43 42 46 47 44 41 40 46 47 47 47 43 45 47 46 44 42 39 31 29 28 27 26 25 24 24 21 20 19 18 16 15 13 13 12
25 26 29 30 33 33 41 39 41 41 41 44 48 54 60 55 50 49 49 46 43 42 44 46 46 44 46 52 53 52 56 52 50 47 43 39 34 31 31 30 29 27 26 25 25 25 24 23 21 20 19 17 16 15
25 26 29 33 37 42 34 34 36 38 41 41 44 43 44 47 54 52 50 47 47 47 46 46 48 50 47 48 53 56 52 51 55 49 44 39 35 31 29 29 30 29 28 27 26 26 27 24 23 22 21 20 18 16
32 32 33 36 38 38 38 35 39 45 47 50 51 53 55 57 64 58 50 51 53 52 50 49 48 49 49 48 51 55 55 52 52 54 48 41 34 30 28 28 30 31 30 28 27 27 28 26 24 22 21 21 19 17
Wind_Direction
290 287 278 264 268 263 261 261 264 261 267 268 268 264 247 246 247 251 252 257 251 250 251 253 253 251 251 252 256 257 265 271 275 295 317 335 358 29 26 36 35 37 36 33 34 26 24 53 43 32 35 46 50 49
285 286 280 271 264 262 261 261 264 260 262 263 268 266 252 245 244 249 249 256 259 253 254 256 258 260 259 257 261 250 268 275 274 293 303 332 342 8 18 15 32 29 47 30 41 30 43 80 35 47 53 49 54 54
286 286 283 277 268 262 261 261 261 259 259 262 264 266 262 244 243 245 248 247 253 251 255 253 253 260 265 265 268 262 263 271 272 282 301 313 325 350 359 8 18 22 37 24 26 38 44 73 41 53 56 54 62 59
289 285 282 281 273 272 267 261 263 262 258 261 261 267 265 248 240 243 246 247 251 253 249 253 260 258 267 265 265 271 273 272 280 280 288 299 312 323 337 348 357 10 43 22 19 25 36 57 62 66 63 63 64 64
293 287 280 283 283 274 268 268 262 262 260 257 260 261 266 255 239 243 248 249 251 249 252 250 256 263 266 261 263 269 269 271 270 275 283 289 302 313 319 330 334 358 1 8 13 41 38 41 108 90 73 72 74 64
292 293 286 284 285 281 268 267 265 261 262 255 261 260 264 260 235 240 245 247 244 249 254 252 261 258 263 261 260 263 268 272 273 273 279 287 295 303 316 318 335 10 24 21 21 51 36 46 93 94 81 83 79 70
294 291 291 289 286 284 277 269 263 261 258 258 253 257 259 263 238 235 243 249 231 244 251 253 255 260 257 258 260 263 269 272 273 274 275 282 287 291 299 299 324 354 39 13 41 51 35 78 69 100 87 86 79 70
293 291 290 291 289 286 281 274 266 256 259 257 254 257 264 256 238 237 248 248 232 239 251 249 251 253 254 254 254 262 262 267 275 273 277 277 283 287 291 293 303 320 349 11 101 19 55 86 88 96 91 89 82 73
291 291 289 288 287 288 285 278 267 265 258 259 250 248 252 247 239 237 235 243 241 243 243 248 243 247 250 255 259 259 263 263 270 268 270 275 274 265 284 286 261 225 214 150 72 38 78 96 104 105 104 98 87 80
287 288 289 287 289 287 285 279 271 268 262 248 242 239 242 241 253 228 235 233 239 245 247 245 245 245 246 250 254 258 262 262 267 269 274 272 271 269 274 286 277 199 180 141 121 89 103 113 120 122 123 110 102 92
287 287 289 290 288 291 285 280 274 268 261 240 235 234 243 237 237 240 235 231 235 239 239 239 240 238 246 246 250 257 262 265 266 268 268 276 276 272 243 239 249 210 191 180 183 136 143 137 138 133 124 114 105 96
288 288 291 294 290 289 289 278 272 260 248 241 236 234 234 234 236 235 232 232 234 235 236 230 232 238 243 250 255 253 259 264 268 269 269 272 278 279 271 227 219 205 194 188 188 152 141 134 135 131 125 116 110 100
292 289 290 295 293 289 285 281 269 260 260 241 233 229 232 233 235 234 231 228 232 233 229 224 223 233 241 249 254 256 257 259 268 267 270 276 281 283 274 254 216 203 192 188 183 158 145 136 133 133 126 116 107 102
292 289 290 291 293 288 287 279 268 264 248 235 225 228 231 235 235 234 231 234 235 237 219 214 224 237 243 242 253 253 259 264 262 262 265 277 281 281 273 249 204 192 184 179 176 162 152 145 139 132 129 121 114 108
293 289 289 292 293 292 286 280 267 259 242 235 228 228 232 235 239 234 237 235 238 226 216 218 230 239 239 245 250 254 256 257 258 262 270 279 273 266 254 234 205 188 179 177 172 164 156 149 144 137 132 126 116 106
294 291 288 292 296 295 289 281 265 247 239 234 233 228 234 229 229 231 233 236 226 220 223 227 234 236 241 240 244 244 250 254 262 267 270 272 270 263 242 224 204 186 175 174 168 165 158 153 150 143 133 129 122 115
293 292 298 297 294 292 284 280 257 239 240 239 230 230 230 231 231 233 233 235 226 215 224 228 232 238 240 242 242 245 248 252 267 273 271 269 263 253 228 211 193 180 176 172 168 167 160 152 147 144 142 137 127 120
291 295 299 298 300 295 299 276 253 244 241 251 232 229 229 232 231 233 235 233 226 227 228 233 235 238 240 244 245 245 251 256 260 271 272 271 264 246 224 200 186 180 176 171 171 167 161 160 160 157 146 139 128 120
294 298 298 298 303 299 288 275 257 257 246 251 247 234 233 234 240 240 240 235 237 233 233 238 240 237 239 250 253 250 247 253 256 259 265 266 254 235 216 203 190 183 177 175 174 175 170 167 168 163 153 146 140 130
293 295 295 295 300 290 280 276 279 253 254 249 249 236 234 234 238 241 240 235 231 232 234 235 236 245 246 248 254 256 252 246 248 252 253 253 250 237 213 190 189 185 183 184 187 176 173 179 184 173 162 156 148 141
295 294 293 289 285 275 278 273 275 276 257 258 252 241 237 237 236 236 237 240 233 233 236 239 240 245 252 264 256 252 250 242 243 246 246 247 241 231 221 215 197 189 188 188 187 184 182 183 182 176 168 165 156 144
296 301 294 287 274 271 267 267 269 276 272 266 260 250 243 236 235 236 240 237 237 237 238 241 242 245 252 252 257 254 250 246 248 248 247 232 230 226 218 209 199 195 194 192 193 188 188 188 185 181 176 168 157 148
299 300 290 281 271 268 268 266 263 267 264 270 269 263 251 240 235 232 237 239 240 240 240 242 245 247 248 258 256 251 247 244 243 244 243 240 238 232 223 215 208 199 201 203 198 194 191 188 184 183 181 174 165 157
299 290 284 277 266 268 268 262 266 264 265 264 265 271 265 245 236 236 239 241 241 241 239 241 245 242 243 250 253 250 245 243 244 244 242 236 231 231 226 218 216 213 211 203 196 194 192 188 184 183 181 177 175 170
282 282 278 271 274 268 263 261 262 262 260 262 262 266 275 258 241 243 242 243 238 237 237 239 242 244 241 241 247 249 247 242 242 242 242 239 235 230 227 223 220 217 203 199 198 197 195 193 191 185 181 180 178 178
273 277 273 277 271 268 266 266 259 258 260 261 265 265 265 262 250 245 249 242 240 239 238 238 239 244 244 241 239 244 247 245 243 244 243 236 229 220 215 211 210 215 207 204 197 195 195 195 193 187 187 186 182 182
268 274 282 278 272 276 271 270 267 263 258 258 262 260 261 258 254 251 250 256 250 249 246 243 243 243 246 243 242 240 243 243 242 244 247 240 236 234 224 211 204 209 203 204 204 200 195 195 193 189 189 191 191 188
275 276 270 270 272 271 267 269 268 262 260 261 261 255 257 260 256 252 252 255 259 264 255 247 246 244 245 246 245 237 236 238 239 240 239 240 240 238 235 236 233 214 212 211 205 202 198 196 194 191 191 193 193 193
273 272 275 270 270 273 268 266 267 266 269 263 259 257 259 261 256 252 253 258 264 261 257 256 252 251 247 244 242 237 232 228 232 235 235 235 234 235 231 230 222 216 214 211 205 203 198 198 196 197 194 192 196 195
270 262 266 267 264 264 269 272 272 274 273 265 262 262 258 257 257 255 256 260 260 255 253 254 256 255 246 241 239 236 234 231 232 233 234 234 238 237 226 221 215 214 211 207 205 204 202 204 203 203 199 205 204 201
266 255 262 263 265 268 267 269 269 270 272 268 260 258 253 258 258 252 251 255 258 258 253 251 250 252 248 239 236 236 235 234 233 234 238 239 237 231 228 221 215 212 207 204 202 200 200 200 202 198 198 201 202 200
266 255 256 261 265 265 272 273 273 272 271 268 266 264 261 257 252 249 248 252 255 256 255 254 251 247 246 245 239 236 241 240 235 233 232 233 230 227 222 217 214 211 207 206 204 202 198 200 201 201 202 201 201 200
269 266 265 267 268 269 270 273 273 270 267 265 264 262 260 257 250 250 251 250 251 253 255 254 252 249 247 245 243 237 236 238 236 234 235 229 220 217 217 217 212 211 208 207 206 204 202 205 207 205 205 203 203 202